Waarnemingen

Advertentie
Mijn weer
Abisko, Zweden (2022): temperatuur & dauwpunt: 22.10.2020 00:00:00 - 28.10.2020 00:00:00 (CET)Abisko, Zweden (2022): windsnelheid & windstoten: 22.10.2020 00:00:00 - 28.10.2020 00:00:00 (CET)Abisko, Zweden (2022): windrichting: 22.10.2020 00:00:00 - 28.10.2020 00:00:00 (CET)Abisko, Zweden (2022): luchtdruk: 22.10.2020 00:00:00 - 28.10.2020 00:00:00 (CET)Abisko, Zweden (2022): zicht: 22.10.2020 00:00:00 - 28.10.2020 00:00:00 (CET)Abisko, Zweden (2022): neerslag: 22.10.2020 00:00:00 - 28.10.2020 00:00:00 (CET)
Datum & Tijd tt [°C] td [°C] ff [km/u] ff [kn] fx [km/u] fx [kn] dd ppp [hPa] vv [km] rr [mm]
28.10.2020 00:00:00 -7,7 -8,7 11 6 14 8 ZW 994,8 20 -
27.10.2020 23:00:00 -6,3 -7,1 11 6 14 8 ZW 994,5 20 -
27.10.2020 22:00:00 -7,4 -8,3 11 6 18 10 ZZW 994,5 20 -
27.10.2020 21:00:00 -6,8 -7,8 14 8 18 10 ZW 994,4 20 -
27.10.2020 20:00:00 -7,0 -7,9 14 8 18 10 ZW 994,7 20 -
27.10.2020 19:00:00 -6,8 -7,6 11 6 14 8 ZW 994,9 20 -
27.10.2020 18:00:00 -6,7 -7,6 14 8 22 12 ZZW 995,1 20 -
27.10.2020 17:00:00 -7,2 -8,1 14 8 14 8 ZW 995,4 20 -
27.10.2020 16:00:00 -6,8 -7,6 11 6 14 8 ZW 996,0 20 -
27.10.2020 15:00:00 -5,6 -6,4 11 6 14 8 ZW 996,1 8 0,0
27.10.2020 14:00:00 -4,8 -5,4 11 6 14 8 ZZW 996,8 8 0,0
27.10.2020 13:00:00 -3,9 -4,5 11 6 14 8 ZW 997,2 20 -
27.10.2020 12:00:00 -4,3 -4,9 11 6 18 10 ZZW 997,8 14 0,0
27.10.2020 11:00:00 -4,0 -4,6 11 6 14 8 ZW 998,3 20 0,0
27.10.2020 10:00:00 -4,3 -4,9 14 8 18 10 ZW 998,9 4,9 -
27.10.2020 09:00:00 -5,0 -5,7 11 6 14 8 ZW 999,7 11 -
27.10.2020 08:00:00 -4,9 -5,6 11 6 22 12 ZW 1000,0 1,7 -
27.10.2020 07:00:00 -5,3 -5,9 14 8 18 10 ZW 1000,0 18 -
27.10.2020 06:00:00 -4,3 -4,8 7 4 14 8 ZW 999,7 20 0,0
27.10.2020 05:00:00 -4,5 -5,2 11 6 22 12 ZW 1000,0 9 -
27.10.2020 04:00:00 -3,7 -4,2 4 2 18 10 W 1000,1 20 -
27.10.2020 03:00:00 -5,3 -5,9 11 6 14 8 ZW 1000,1 20 -
27.10.2020 02:00:00 -4,1 -4,8 7 4 14 8 WZW 999,9 20 -
27.10.2020 01:00:00 -5,5 -6,3 7 4 14 8 WZW 1000,2 20 -
27.10.2020 00:00:00 -6,7 -7,5 14 8 18 10 ZW 999,9 20 -
26.10.2020 23:00:00 -7,8 -8,8 14 8 22 12 ZW 999,7 20 -
26.10.2020 22:00:00 -6,8 -7,7 11 6 18 10 ZW 999,3 20 0,0
26.10.2020 21:00:00 -6,9 -7,9 11 6 18 10 ZW 998,8 0,8 0,0
26.10.2020 20:00:00 -5,4 -6,1 11 6 18 10 ZZW 998,1 0,7 -
26.10.2020 19:00:00 -6,7 -7,5 4 2 14 8 Z 998,0 20 -
26.10.2020 18:00:00 -4,4 -5,0 4 2 18 10 ZZO 997,8 20 -
26.10.2020 17:00:00 -5,2 -6,0 7 4 18 10 ZW 997,8 20 -
26.10.2020 16:00:00 -4,9 -5,7 11 6 14 8 ZW 997,5 20 -
26.10.2020 15:00:00 -2,3 -4,4 4 2 11 6 ZZW 997,2 20 -
26.10.2020 14:00:00 -1,4 -4,0 11 6 14 8 ZW 997,0 20 -
26.10.2020 13:00:00 -0,1 -2,9 4 2 11 6 WZW 996,8 12 -
26.10.2020 12:00:00 -0,9 -3,2 7 4 22 12 Z 996,8 20 -
26.10.2020 11:00:00 -0,4 -3,2 11 6 18 10 O 996,6 20 -
26.10.2020 10:00:00 -1,2 -3,7 7 4 18 10 ONO 996,4 20 -
26.10.2020 09:00:00 -2,5 -4,1 7 4 25 14 WZW 996,3 20 -
26.10.2020 08:00:00 -1,8 -3,5 7 4 18 10 OZO 995,8 20 -
26.10.2020 07:00:00 -2,0 -4,4 11 6 32 18 ZZO 995,0 20 -
26.10.2020 06:00:00 -0,5 -3,1 18 10 36 19 OZO 994,6 20 -
26.10.2020 05:00:00 -0,1 -3,1 7 4 40 21 OZO 994,6 20 -
26.10.2020 04:00:00 -0,1 -3,0 18 10 40 21 O 994,3 20 -
26.10.2020 03:00:00 1,3 -3,4 22 12 65 35 O 993,6 20 -
26.10.2020 02:00:00 1,2 -3,4 36 19 79 43 ZO 992,8 20 -
26.10.2020 01:00:00 0,5 -3,3 47 25 97 53 OZO 992,7 20 -
26.10.2020 00:00:00 -0,5 -2,8 50 27 104 56 O 993,7 17 0,0
25.10.2020 23:00:00 0,0 -3,1 54 29 - - OZO 994,6 2,1 0,0
25.10.2020 22:00:00 -1,0 -2,3 50 27 94 51 O 996,2 2,0 0,0
25.10.2020 21:00:00 -0,7 -1,5 58 31 101 54 O 997,3 2,9 0,0
25.10.2020 20:00:00 -1,3 -2,1 61 33 90 49 ONO 998,0 0,6 0,1
25.10.2020 19:00:00 0,0 -4,5 47 25 90 49 O 999,6 8 0,1
25.10.2020 18:00:00 -0,1 -4,2 - - 86 47 ONO 999,8 15 0,1
25.10.2020 17:00:00 -0,2 -3,8 36 19 76 41 ONO 1000,5 20 0,0
25.10.2020 16:00:00 0,3 -4,1 32 18 68 37 ONO 1001,2 20 -
25.10.2020 15:00:00 0,3 -4,2 32 18 72 39 ONO 1002,6 20 -
25.10.2020 14:00:00 0,4 -4,4 29 16 50 27 ONO 1002,8 20 -
25.10.2020 13:00:00 0,3 -4,8 22 12 36 19 O 1003,5 20 -
25.10.2020 12:00:00 0,3 -4,8 18 10 43 23 O 1004,2 20 -
25.10.2020 11:00:00 0,7 -4,7 18 10 36 19 O 1004,6 20 -
25.10.2020 10:00:00 0,5 -2,3 22 12 36 19 O 1004,6 20 -
25.10.2020 09:00:00 -0,2 -1,7 11 6 22 12 OZO 1005,4 20 -
25.10.2020 08:00:00 -3,0 -6,5 7 4 14 8 OZO 1005,7 20 -
25.10.2020 07:00:00 -3,8 -6,7 11 6 18 10 ZW 1005,4 20 -
25.10.2020 06:00:00 -2,8 -6,4 14 8 22 12 Z 1005,4 20 -
25.10.2020 05:00:00 -4,0 -6,9 14 8 25 14 ZZW 1005,4 20 -
25.10.2020 04:00:00 -3,4 -6,8 22 12 32 18 ZZW 1005,2 20 -
25.10.2020 03:00:00 -4,2 -7,0 18 10 22 12 ZZW 1005,4 20 -
25.10.2020 02:00:00 -3,3 -6,2 14 8 22 12 ZZW 1005,2 20 -
25.10.2020 01:00:00 - - - - - - - - - -
25.10.2020 00:00:00 -2,4 -5,0 14 8 22 12 ZZW 1004,8 20 -
24.10.2020 23:00:00 -1,2 -4,4 18 10 22 12 ZZW 1004,3 20 0,0
24.10.2020 22:00:00 -0,4 -3,7 14 8 18 10 ZZW 1004,0 20 0,0
24.10.2020 21:00:00 0,4 -3,1 7 4 25 14 Z 1004,0 20 -
24.10.2020 20:00:00 0,5 -2,7 18 10 25 14 ZW 1003,5 20 0,0
24.10.2020 19:00:00 0,6 -3,0 14 8 22 12 ZZW 1003,0 20 -
24.10.2020 18:00:00 0,9 -3,7 14 8 22 12 ZZW 1002,6 20 -
24.10.2020 17:00:00 1,1 -4,1 11 6 22 12 ZW 1002,5 20 -
24.10.2020 16:00:00 1,3 -4,4 18 10 25 14 WZW 1002,5 20 -
24.10.2020 15:00:00 1,3 -4,8 14 8 25 14 W 1002,4 20 -
24.10.2020 14:00:00 1,1 -4,9 14 8 29 16 W 1002,1 20 -
24.10.2020 13:00:00 0,8 -4,9 18 10 29 16 W 1001,9 20 -
24.10.2020 12:00:00 1,2 -5,4 18 10 29 16 W 1001,6 20 -
24.10.2020 11:00:00 1,0 -5,4 18 10 32 18 WZW 1001,3 20 -
24.10.2020 10:00:00 0,6 -5,8 18 10 29 16 WZW 1001,1 20 -
24.10.2020 09:00:00 0,3 -5,8 11 6 25 14 W 1000,7 20 -
24.10.2020 08:00:00 0,1 -5,5 11 6 36 19 ZW 1000,0 20 -
24.10.2020 07:00:00 1,0 -4,8 22 12 43 23 NW 999,4 20 -
24.10.2020 06:00:00 1,1 -4,5 22 12 36 19 NW 999,2 20 -
24.10.2020 05:00:00 0,6 -4,8 18 10 32 18 WNW 999,0 20 -
24.10.2020 04:00:00 0,6 -4,1 18 10 40 21 NW 998,7 20 -
24.10.2020 03:00:00 1,0 -4,0 14 8 47 25 WNW 998,5 20 -
24.10.2020 02:00:00 1,4 -3,6 25 14 43 23 NW 997,5 20 -
24.10.2020 01:00:00 1,3 -3,5 22 12 47 25 NW 997,1 20 -
24.10.2020 00:00:00 1,5 -4,1 18 10 43 23 WNW 996,5 20 -
23.10.2020 23:00:00 1,5 -4,2 22 12 47 25 NW 996,2 20 -
23.10.2020 22:00:00 1,8 -4,5 25 14 50 27 WNW 995,4 20 -
23.10.2020 21:00:00 1,0 -4,6 22 12 47 25 NW 995,2 20 -
23.10.2020 20:00:00 0,9 -5,5 22 12 50 27 WNW 994,9 20 -
23.10.2020 19:00:00 -0,1 -5,5 22 12 47 25 WNW 994,8 20 -
23.10.2020 18:00:00 -0,3 -5,9 22 12 40 21 WNW 994,6 20 -
23.10.2020 17:00:00 -1,1 -6,6 18 10 40 21 W 994,7 20 -
23.10.2020 16:00:00 -1,7 -7,6 18 10 40 21 W 994,9 20 -
23.10.2020 15:00:00 -1,7 -7,5 18 10 36 19 W 994,7 20 -
23.10.2020 14:00:00 -1,6 -7,5 25 14 40 21 W 994,4 20 -
23.10.2020 13:00:00 -1,3 -7,5 11 6 25 14 W 994,3 20 -
23.10.2020 12:00:00 -1,8 -6,8 7 4 18 10 W 994,2 20 -
23.10.2020 11:00:00 -3,4 -6,8 11 6 18 10 ZZW 994,2 20 -
23.10.2020 10:00:00 -4,7 -7,5 7 4 14 8 Z 994,5 20 0,1
23.10.2020 09:00:00 -5,4 -8,6 11 6 18 10 ZW 994,4 20 -
23.10.2020 08:00:00 -6,5 -9,4 14 8 22 12 ZZW 994,3 20 -
23.10.2020 07:00:00 -7,1 -9,9 18 10 22 12 ZZW 994,5 20 -
23.10.2020 06:00:00 -7,8 -10,3 14 8 22 12 ZZW 994,9 20 -
23.10.2020 05:00:00 -6,1 -9,2 18 10 22 12 ZZW 994,9 20 -
23.10.2020 04:00:00 -6,4 -9,0 11 6 14 8 ZZW 995,3 20 -
23.10.2020 03:00:00 -6,0 -8,5 14 8 18 10 ZZW 995,7 20 0,0
23.10.2020 02:00:00 -5,8 -8,5 11 6 22 12 ZZW 996,2 5 -
23.10.2020 01:00:00 -5,9 -9,0 14 8 22 12 ZZW 996,6 18 -
23.10.2020 00:00:00 -6,3 -8,9 14 8 22 12 ZZW 997,1 20 -
22.10.2020 23:00:00 -6,0 -8,6 14 8 22 12 ZZW 997,6 20 0,0
22.10.2020 22:00:00 -5,5 -7,3 18 10 22 12 ZZW 997,7 20 0,1
22.10.2020 21:00:00 -5,5 -7,3 18 10 22 12 ZZW 998,1 7 -
22.10.2020 20:00:00 -6,2 -8,0 11 6 14 8 ZZW 998,8 12 0,0
22.10.2020 19:00:00 -6,4 -8,5 11 6 11 6 ZW 999,2 20 0,0
22.10.2020 18:00:00 -5,8 -8,4 4 2 14 8 Z 999,3 20 -
22.10.2020 17:00:00 -6,0 -8,1 7 4 11 6 ZW 999,7 20 -
22.10.2020 16:00:00 -5,3 -8,2 4 2 7 4 ZZO 1000,0 20 -
22.10.2020 15:00:00 -4,8 -7,7 4 2 7 4 Z 1000,3 20 0,0
22.10.2020 14:00:00 -4,5 -7,8 4 2 7 4 ZZO 1000,8 20 0,0
22.10.2020 13:00:00 -4,5 -8,0 4 2 7 4 ZZW 1001,2 20 0,0
22.10.2020 12:00:00 -4,6 -7,8 4 2 25 14 OZO 1001,6 20 -
22.10.2020 11:00:00 -5,0 -8,2 18 10 40 21 O 1002,0 15 -
22.10.2020 10:00:00 -5,3 -8,2 29 16 43 23 O 1002,2 20 0,0
22.10.2020 09:00:00 -5,4 -7,9 25 14 36 19 O 1002,8 20 0,0
22.10.2020 08:00:00 -5,5 -7,6 22 12 43 23 O 1003,4 15 -
22.10.2020 07:00:00 -5,4 -7,5 29 16 43 23 O 1003,3 8 0,0
22.10.2020 06:00:00 -5,3 -7,2 29 16 43 23 O 1003,4 4,1 0,0
22.10.2020 05:00:00 -5,2 -7,3 25 14 40 21 ONO 1004,0 20 0,0
22.10.2020 04:00:00 -4,9 -7,4 22 12 40 21 O 1004,6 14 0,0
22.10.2020 03:00:00 -4,5 -7,3 25 14 40 21 O 1005,4 14 0,0
22.10.2020 02:00:00 -4,2 -7,3 25 14 40 21 O 1006,0 20 -
22.10.2020 01:00:00 -4,5 -7,0 29 16 47 25 O 1006,3 20 0,0
22.10.2020 00:00:00 -4,4 -7,2 25 14 43 23 O 1007,0 20 -

tt = temperatuur
td = dauwpunt
ff = windsnelheid
fx = windstoten
dd = windrichting
ppp = luchtdruk
vv = zicht
rr = neerslag

Weerstations in de omgeving